Back to catalog

ATLAS 5 CENTAUR DEB

LostHEO
NORAD 46650·DEBRIS·🇺🇸 United States

Launched Sep 17, 2014 from Cape Canaveral Space Force Station

Loading…

Next Passes (next 24 hours)

TLE

StaleSource: Space-Track

Epoch: Dec 29, 2020, 08:04 UTC

1 46650U 14055DA  20364.33619505 -.00000122  00000-0  00000+0 0  9998
2 46650  22.2672 346.1253 4533167 157.0610 232.2120  1.70394216  1339

Track ATLAS 5 CENTAUR DEB in real time with AllMySat

Download on the App Store